Location: ??
(35.3287°N, 139.6223°E)
Time: 23:10:05
(UTC+00:00)

Daily predictions for brighter satellites

Satellite Brightness Start Highest point End
(mag) Time Altitude Azimuth Time Altitude Azimuth Time Altitude Azimuth
Okean-O 4.3 12:01:15 13° SSW 12:04:22 28° W 12:08:09 10° NW
SPOT 5 3.6 12:02:09 23° SSW 12:04:26 41° W 12:08:39 10° NNW
ERS-1 Rocket 3.0 12:02:51 34° S 12:05:03 77° WSW 12:10:05 10° NNW
Cosmos 2322 4.0 12:00:36 10° NNW 12:06:10 55° ENE 12:07:58 39° ESE
Cosmos 1244 Rocket 4.5 12:02:53 22° S 12:07:11 87° W 12:13:32 10° N
Cosmos 1346 Rocket 4.3 12:05:29 10° NNW 12:08:50 29° W 12:10:35 20° SW
Cosmos 2322 Rocket 3.8 12:04:40 10° NW 12:09:22 27° WSW 12:13:16 13° SSW
Meteor 1-16 Rocket 4.3 12:03:48 10° N 12:09:44 83° W 12:12:23 34° S
Cosmos 2297 Rocket 2.5 12:09:16 42° SE 12:10:10 45° ESE 12:15:31 10° NE
Spot 1 4.4 12:05:53 10° NNE 12:10:39 58° ESE 12:11:37 49° SE
USA 245 3.8 12:11:52 44° SSW 12:12:55 62° W 12:17:41 10° NNW
Okean O Rocket 4.4 12:11:59 10° WSW 12:13:13 11° W 12:14:27 10° WNW
Okean 1-7 3.5 12:11:41 29° SSW 12:13:40 57° W 12:17:56 10° N
Cosmos 1703 Rocket 3.5 12:15:01 53° S 12:16:03 90° NE 12:20:30 10° N
Cosmos 1570 Rocket 4.1 12:13:57 10° NNW 12:19:17 67° ENE 12:20:28 51° SE
Atlas Centaur 2 4.5 12:17:36 10° WSW 12:22:21 17° SSW 12:23:33 17° SSW
SL-4 R/B 3.2 12:18:48 10° NNW 12:22:23 32° NE 12:23:06 30° ENE
SL-08 R/B 4.4 12:19:49 31° S 12:22:58 82° W 12:29:06 10° N
Cosmos 304 Rocket 3.7 12:23:25 59° ESE 12:23:28 59° ESE 12:28:09 10° NNE
Cosmos 2219 Rocket 2.6 12:19:38 10° NNW 12:25:11 55° WSW 12:27:08 37° SSW
CENTAUR R/B 3.0 12:28:27 34° E 12:28:27 34° E 12:33:12 10° NE
Landsat 5 3.3 12:23:33 10° NNE 12:27:45 85° ESE 12:27:58 80° SSE
Cosmos 1709 Rocket 4.4 12:30:24 42° ESE 12:31:22 46° E 12:37:22 10° NNE
SL-23 DEB 4.2 12:33:55 33° WSW 12:35:24 65° NW 12:40:32 10° NE
SPOT 3 Rocket 3.8 12:35:49 47° SSW 12:37:03 62° WSW 12:42:11 10° NNW
Spot 2 Rocket 4.1 12:36:04 39° SW 12:37:28 50° W 12:42:24 10° NNW
Cosmos 1777 Rocket 4.1 12:38:16 56° E 12:38:16 56° E 12:43:18 10° NNE
Cosmos 1503 Rocket 3.9 12:47:10 71° S 12:47:46 86° ESE 12:53:05 10° NNE
SeaSat 1 2.3 12:50:06 76° SSW 12:50:21 79° WSW 12:55:17 10° NNW
COSMOS 2428 2.7 12:48:41 10° NNW 12:54:21 72° WSW 12:55:05 63° SSW
USA 234 3.9 12:49:34 10° NE 12:55:53 53° NW 13:02:11 10° WSW
Cosmos 2208 Rocket 4.1 12:57:29 10° NNW 13:02:35 63° WSW 13:02:43 63° WSW
Ariane Rocket 4.3 13:01:51 27° WSW 13:02:55 30° W 13:07:22 10° NW
Cosmos 158 Rocket 4.1 12:59:34 10° NNW 13:04:42 64° WSW 13:04:43 64° WSW
USA 281 4.1 13:05:43 31° E 13:07:26 36° ENE 13:13:17 10° N
Cosmos 2242 Rocket 4.0 13:07:55 64° NW 13:07:55 64° NW 13:12:03 10° N
NOSS 0 Rocket 3.8 13:04:19 10° NNW 13:10:35 82° WSW 13:11:13 72° S
CZ-4C R/B 4.4 13:15:45 10° W 13:18:59 19° NW 13:22:42 10° N
BREEZE-M R/B 3.6 13:32:14 51° ENE 13:32:14 51° ENE 13:37:49 10° NE
ARIANE 5 R/B 3.5 13:34:31 45° NNW 13:34:31 45° NNW 13:37:34 10° NNW
Meteor 2-5 Rocket 3.9 13:33:07 64° WSW 13:33:30 66° W 13:39:17 10° N
SL-16 R/B 3.6 13:29:40 10° N 13:34:26 27° ENE 13:34:58 26° ENE
Cosmos 2227 Rocket 2.4 13:34:35 64° W 13:34:54 65° WNW 13:40:33 10° NNE
NOSS 3-2 (A) 3.4 13:37:08 57° NE 13:37:08 57° NE 13:41:43 10° NNE
Cosmos 2237 Rocket 2.2 13:30:43 10° NNW 13:35:58 76° NW 13:35:58 76° NW
Cosmos 990 Rocket 4.5 13:45:34 55° NNE 13:45:34 55° NNE 13:49:34 10° NNE
Cosmos 2074 Rocket 4.1 13:50:12 64° ENE 13:50:12 64° ENE 13:55:58 10° NNE
Cosmos 1980 4.1 13:45:14 10° NNW 13:50:09 54° W 13:50:09 54° W
Cosmos 2297 Rocket 4.2 13:50:59 14° WSW 13:54:22 23° WNW 13:58:45 10° N
H-2A R/B 4.0 13:56:34 36° N 13:56:34 36° N 13:59:05 10° N
ATLAS 2A CENTAUR R/B 4.4 13:15:37 10° W 13:56:59 60° S 13:59:25 51° SSE
Cosmos 2181 Rocket 3.9 13:51:48 10° N 13:57:41 83° N 13:57:41 83° N
SL-12 R/B(2) 4.4 13:55:10 39° SW 13:58:27 69° NW 14:07:41 10° NNE
Cosmos 1295 Rocket 4.5 14:07:15 73° NE 14:07:15 73° NE 14:12:54 10° N
Cosmos 2219 3.5 14:08:34 62° NW 14:08:34 62° NW 14:13:44 10° NNE
Cosmos 2263 Rocket 2.5 14:15:55 62° N 14:15:55 62° N 14:20:35 10° NNE
ALOS 2 4.0 14:18:46 36° N 14:18:46 36° N 14:21:23 10° N
CENTAUR R/B 3.9 14:15:31 22° W 14:18:10 31° NW 14:24:01 10° NNE
Cosmos 1844 Rocket 4.5 14:33:31 21° ENE 14:33:31 21° ENE 14:36:11 10° NE
Nadezhda 3 Rocket 4.0 14:28:26 10° N 14:34:12 74° NE 14:34:12 74° NE
Cosmos 1818 4.2 14:36:55 10° NNW 14:41:42 51° NE 14:41:42 51° NE
H-2A R/B 3.9 14:39:18 10° NNE 14:41:17 27° NNE 14:41:17 27° NNE
Cosmos 1937 Rocket 4.2 14:49:23 52° N 14:49:23 52° N 14:53:25 10° NNE
USA 281 4.0 14:52:35 37° W 14:52:35 37° W 14:57:51 10° NW
USA 238 DEB 3.6 14:55:03 65° ENE 14:55:03 65° ENE 15:00:42 10° NE
USA 238 3.6 14:55:06 64° ENE 14:55:06 64° ENE 15:00:45 10° NE
Cosmos 2327 Rocket 4.5 14:54:54 73° NNW 14:54:54 73° NNW 15:00:30 10° N
In-Cosmos 22 Rocket 4.5 14:56:55 68° N 14:56:55 68° N 15:01:59 10° N
SL-8 Rocket 4.1 15:03:19 67° ENE 15:03:19 67° ENE 15:09:04 10° NNE
SL-16 R/B 3.5 15:13:22 10° NW 15:16:49 30° WNW 15:16:49 30° WNW
Cosmos 1959 Rocket 4.5 15:19:58 76° ENE 15:19:58 76° ENE 15:26:09 10° N
Meteor 2-1 Rocket 4.4 15:19:40 10° N 15:24:47 69° NNW 15:24:47 69° NNW
Cosmos 1943 3.4 15:20:01 10° NNW 15:25:08 65° NNE 15:25:08 65° NNE
Cosmos 1867 4.1 15:27:16 52° NW 15:27:16 52° NW 15:32:08 10° NNE
Cosmos 1680 Rocket 4.3 15:40:07 10° NNW 15:43:42 42° NW 15:43:42 42° NW
Cosmos 2228 4.3 15:42:20 10° N 15:45:00 37° N 15:45:00 37° N
GEOS 3 Rocket 3.9 15:52:24 10° NNE 15:57:18 57° NW 15:57:18 57° NW
ATLAS 5 CENTAUR R/B 3.5 16:05:38 18° NE 16:05:38 18° NE 16:06:40 10° NE
ADEOS II 3.8 16:00:45 10° NE 16:04:47 22° E 16:05:43 21° ESE
Cosmos 494 Rocket 4.0 16:00:50 10° NNW 16:05:54 75° NE 16:05:54 75° NE
Cosmos 1844 4.0 16:07:52 54° WNW 16:08:00 54° WNW 16:13:42 10° NNE
Cosmos 1821 Rocket 3.9 16:08:51 69° W 16:09:05 70° W 16:15:15 10° N
Cosmos 1048 Rocket 4.2 16:09:28 10° N 16:14:43 64° ENE 16:15:17 60° ESE
Cosmos 1844 Rocket 3.4 16:15:09 39° WNW 16:15:23 39° WNW 16:20:36 10° N
Lacrosse 5 3.5 16:19:00 23° ESE 16:19:00 23° ESE 16:22:29 10° ENE
Timation 2 Rocket 3.9 16:20:20 67° SW 16:21:18 85° WNW 16:27:42 10° NNE
CZ-2D R/B 2.5 16:16:55 10° NNE 16:22:03 51° E 16:22:33 49° ESE
Cosmos 1125 Rocket 3.4 16:22:36 81° WNW 16:22:36 81° WNW 16:27:53 10° NNE
COBE Rocket 4.1 16:18:46 10° N 16:23:44 66° WNW 16:23:44 66° WNW
Celestis-02/Orion 38 4.5 16:26:31 78° S 16:26:52 85° WSW 16:32:19 10° NNW
Alouette 2 Rocket 4.1 16:28:34 49° ENE 16:28:34 49° ENE 16:31:33 10° NNE
Cosmos 1892 Rocket 3.8 16:29:51 68° NE 16:29:51 68° NE 16:33:52 10° N
Cosmos 921 Rocket 4.2 16:27:51 10° NNW 16:30:19 33° NW 16:30:19 33° NW
H-2A R/B 3.9 16:28:46 10° NNE 16:32:02 58° NNE 16:32:02 58° NNE
CZ-2C R/B 3.1 16:31:16 38° SE 16:33:03 57° ENE 16:38:21 10° N
Cosmos 1934 Rocket 4.0 16:32:59 52° SSE 16:34:36 77° E 16:40:58 10° N
Meteor 2-13 Rocket 4.5 16:29:40 10° NNW 16:35:38 57° W 16:36:07 55° WSW
Resurs 1-4 Rocket 2.0 16:32:16 10° NNE 16:37:34 79° ESE 16:38:15 67° SSE
Cosmos 724 4.2 16:33:29 10° NNW 16:39:20 88° ENE 16:41:20 44° SSE
Cosmos 2058 Rocket 4.0 16:40:38 10° N 16:44:50 43° E 16:45:53 36° ESE
Cosmos 1812 3.4 16:43:01 10° N 16:45:55 48° NE 16:45:55 48° NE
FENGYUN 3A 3.9 16:45:06 10° NNE 16:50:27 63° ESE 16:51:56 45° SSE
NOSS 2-3 (D) 3.5 16:51:12 62° NNE 16:51:12 62° NNE 16:54:23 10° NNE
Cosmos 2123 Rocket 3.9 16:48:25 10° N 16:54:39 87° E 16:57:11 39° S
Cosmos 2058 2.8 16:55:47 79° NNW 16:55:47 79° NNW 16:59:41 10° N
IDEFIX/ARIANE 42P 2.9 16:50:56 10° N 16:55:58 49° WNW 16:56:37 46° W
Cosmos 2150 Rocket 3.9 16:56:37 60° SW 16:57:28 72° WNW 17:02:47 10° NNE
Cosmos 2278 Rocket 3.4 16:55:04 24° SE 16:57:30 33° ESE 17:02:31 10° NE
USA 276 3.8 16:58:53 32° NNE 16:58:53 32° NNE 17:00:44 10° NE
NPP 4.0 16:55:47 10° N 17:00:56 47° WNW 17:01:52 42° WSW
ALOS 2.8 17:03:13 10° NNE 17:07:43 50° E 17:09:18 34° SSE
Gbstr 26 Del rocket 3.9 17:07:24 44° WSW 17:09:23 78° NW 17:16:18 10° NE
Cosmos 1271 Rocket 4.2 17:08:32 24° ESE 17:09:32 28° E 17:12:39 10° NNE
Cosmos 1607 4.4 17:08:01 10° NW 17:13:50 39° WSW 17:14:21 38° WSW
MSX 4.5 17:11:59 10° N 17:17:17 40° WNW 17:18:57 33° WSW
NOSS 2-3 (E) 4.1 17:18:03 34° WNW 17:18:16 35° NW 17:21:46 10° NNE
BlueWalker 3 2.6 17:14:38 10° NW 17:18:18 52° NE 17:21:57 10° ESE
Genesis I 3.8 17:17:24 10° NW 17:19:53 39° WNW 17:19:53 39° WNW
SL-24 R/B 4.4 17:15:39 10° NNE 17:21:06 90° WSW 17:22:48 41° SSW
NOSS 2-3 (C) 4.4 17:25:27 28° WNW 17:25:54 29° NW 17:29:14 10° N
USA 267 3.9 17:20:58 10° NE 17:27:10 45° SE 17:30:49 24° S
SL-16 R/B 2.6 17:21:59 10° SSE 17:28:13 79° ENE 17:34:26 10° NNW
CZ-2C R/B 3.7 17:24:48 10° N 17:29:32 38° WNW 17:30:53 32° WSW
USA 81 4.2 17:25:06 10° NNW 17:30:15 56° W 17:32:09 36° SSW
Iridium 4 Rocket 3.4 17:26:57 10° N 17:31:50 76° W 17:34:30 29° S
Cosmos 1833 Rocket 3.1 17:29:50 10° NNW 17:35:26 64° ENE 17:41:01 10° SSE
OAO 2 Rocket 3.6 17:35:38 36° SSW 17:37:14 50° SSE 17:42:04 10° E
USA 290 4.0 17:36:18 19° SE 17:37:39 26° ESE 17:40:25 10° NE
Aureole 2 4.2 17:37:24 55° SSE 17:37:47 62° ESE 17:40:39 10° NNE
Meteor 1-28 Rocket 2.9 17:37:23 49° SSW 17:38:10 70° W 17:41:43 10° NNW
Cosmos 1943 Rocket 3.0 17:35:51 18° S 17:39:50 47° ESE 17:45:14 10° NE
AQUA 4.2 17:36:33 10° N 17:41:04 48° WNW 17:42:48 32° SW
Cosmos 1238 Rocket 3.3 17:40:11 10° NNW 17:42:10 29° WNW 17:42:10 29° WNW
ADEOS II 2.8 17:39:39 10° N 17:44:28 38° WNW 17:46:36 27° WSW
Cosmos 44 4.1 17:42:32 22° S 17:45:50 52° ESE 17:50:56 10° NE
Envisat 3.2 17:45:49 10° NNE 17:50:53 70° ESE 17:54:53 16° S
USA 305 1.8 17:51:29 51° SSW 17:52:08 79° SE 17:54:50 10° NE
Cosmos 1825 Rocket 4.3 17:51:26 12° SSE 17:55:27 51° E 17:59:44 10° NNE
Okean 1-7 Rocket 3.6 17:53:20 27° SSW 17:55:38 63° W 18:00:03 10° N
Cosmos 1812 Rocket 3.8 17:51:24 10° N 17:55:46 72° E 18:00:08 10° SSE
Cosmos 1515 3.3 17:52:58 10° N 17:56:27 75° W 17:58:27 23° S
Cosmos 1602 Rocket 3.6 17:54:25 26° SSW 17:56:47 63° W 18:01:12 10° N
Cosmos 2100 Rocket 4.1 17:53:53 11° S 17:59:54 77° E 18:06:03 10° N
ATLAS CENTAUR R/B 4.3 17:57:37 10° N 18:00:33 19° NE 18:03:35 10° E
Lacrosse 5 2.5 17:58:12 22° WSW 18:01:11 46° NW 18:06:03 10° NNE
CZ-2D R/B 3.8 17:58:12 10° NNW 18:01:34 18° WNW 18:03:50 14° W
SAR-Lupe-1 4.4 17:59:17 10° N 18:02:44 47° WNW 18:04:16 28° SW
ISS -3.9 18:03:44 31° SW 18:05:10 84° NW 18:08:31 10° NE
IRS-1D 4.4 18:00:40 10° NNE 18:05:31 45° E 18:10:16 10° S
NOSS 3-1 (C) 2.8 18:03:18 22° SSW 18:06:20 90° NW 18:11:43 10° NNE
Cosmos 1666 2.3 18:04:38 21° S 18:06:47 89° W 18:10:12 10° N
Cosmos 1862 3.4 18:05:32 25° SSW 18:07:30 53° W 18:11:14 10° N
BREEZE-M R/B 4.3 18:01:17 10° NW 18:07:42 79° NE 18:14:27 10° SE
CZ-2C R/B 2.6 18:05:18 10° NNE 18:09:52 66° ESE 18:14:32 10° S
Cosmos 1758 Rocket 4.3 18:08:26 22° SW 18:10:36 35° W 18:14:38 10° NNW
NOAA 11 4.2 18:06:38 10° N 18:12:07 84° WNW 18:17:12 12° SSW
H-2A R/B 4.0 18:08:39 10° NE 18:12:57 26° E 18:17:09 10° SSE
CZ-2C R/B 4.2 18:12:44 14° WSW 18:13:38 15° W 18:16:39 10° WNW
YAOGAN 6 2.7 18:11:22 10° NNE 18:14:29 58° E 18:17:22 11° S
Cosmos-2242 3.6 18:10:58 10° NNW 18:14:54 37° W 18:17:40 17° SSW
Cosmos 489 Rocket 4.4 18:10:07 14° SSW 18:15:30 81° WNW 18:21:44 10° NNE
UNK 3.8 18:11:23 10° S 18:15:51 53° W 18:20:20 10° NNW
Resurs 1-4 Rocket 4.2 18:14:49 10° NW 18:16:37 12° WNW 18:18:27 10° W
Cosmos 1378 3.0 18:14:15 10° NNW 18:17:24 48° W 18:19:48 16° SSW
SWARM A 4.4 18:15:18 16° SSW 18:17:58 62° W 18:21:29 10° N
PAYLOAD A 4.4 18:12:41 10° NNE 18:18:03 71° ESE 18:23:27 10° S
Cosmos 1933 3.7 18:16:42 10° NNW 18:20:26 42° W 18:23:41 13° SSW
Cosmos 1500 3.5 18:18:36 21° SW 18:20:27 38° W 18:23:40 10° N
ATLAS 3B R/B 3.5 18:13:58 10° S 18:20:30 49° ESE 18:27:34 10° NE
Meteor 2-15 Rocket 4.4 18:21:59 10° S 18:28:03 90° WSW 18:34:09 10° N
NOSS 3-1 (A) 3.4 18:23:58 10° SSW 18:28:31 56° ESE 18:33:44 10° NE
Cosmos 1782 4.2 18:31:40 10° NW 18:34:24 19° W 18:36:26 13° SW
Cosmos 1076 Rocket 4.2 18:31:55 10° S 18:36:02 55° E 18:40:11 10° NNE
USA 307 2.7 18:35:05 14° WSW 18:37:56 49° NW 18:40:55 10° NNE
Meteor 2-21 Rocket 4.4 18:32:32 10° N 18:38:36 80° W 18:44:40 10° S
Cosmos 1140 Rocket 4.1 18:34:30 10° N 18:39:33 59° ENE 18:44:35 10° SSE
Intercosmos 25 3.1 18:37:00 10° S 18:40:09 77° E 18:43:55 10° N
Meteor 1-26 Rocket 4.3 18:35:28 10° NNW 18:40:40 53° W 18:45:55 10° S
OAO 3 Copernicus 4.3 18:35:46 10° WSW 18:40:46 80° S 18:45:47 10° E
Cosmos 2082 Rocket 2.8 18:35:52 10° NNW 18:41:28 62° ENE 18:47:00 10° SSE
Cosmos 2278 Rocket 3.3 18:36:55 11° WSW 18:41:30 30° WNW 18:46:25 10° N
ALOS 4.2 18:42:05 10° NW 18:44:25 14° WNW 18:46:47 10° W
Cosmos 2061 Rocket 4.2 18:41:55 10° S 18:48:12 79° E 18:54:26 10° N
Cosmos 1269 Rocket 4.4 18:43:43 10° NNW 18:48:43 44° WSW 18:53:42 10° S
Cosmos 2221 2.5 18:47:51 10° NNW 18:51:58 58° W 18:56:05 10° S
BlueWalker 3 3.6 18:54:05 10° W 18:56:05 14° SW 18:58:05 10° SSW
Cosmos 1340 Rocket 4.4 18:57:12 10° N 19:00:45 38° ENE 19:04:18 10° SSE
Cosmos 1420 Rocket 4.4 18:55:45 10° S 19:00:59 70° ESE 19:06:17 10° NNE
